KQ4KX Weather Reports


time (UTC)temp
F
wind
direction
speed
knots
gust
knots
rain 1hr
in
rain 24hr
in
rain mn
in
humidity
%
barometer
mb
20260901022203 79 102 0.0 1.7 0.00 0.15 0.15 97 1017.5
20260901020604 79 81 0.9 2.6 0.00 0.15 0.15 97 1017.3
20260901020104 79 72 0.9 2.6 0.00 0.15 0.15 97 1017.2
20260901015815 79 77 0.9 1.7 0.00 0.15 0.15 97 1017.2
20260901015604 79 77 0.9 1.7 0.00 0.15 0.15 97 1017.2
20260901015334 79 81 0.9 3.5 0.00 0.15 0.15 97 1017.1
20260901015104 79 81 0.9 3.5 0.00 0.15 0.15 97 1017.1
20260901014603 79 92 1.7 5.2 0.00 0.15 0.15 97 1017.1
20260901013749 79 110 1.7 3.5 0.00 0.15 0.15 97 1017.0
20260901013534 79 110 1.7 3.5 0.00 0.15 0.15 97 1017.0
20260901013004 79 103 1.7 3.5 0.00 0.15 0.15 97 1017.1
20260901012504 79 95 2.6 5.2 0.00 0.15 0.15 97 1016.9
20260901011503 79 92 2.6 6.1 0.00 0.15 0.15 97 1016.7
20260901011004 79 88 1.7 6.1 0.00 0.15 0.15 97 1016.7
20260901010503 79 84 0.9 2.6 0.00 0.15 0.15 97 1016.6
20260901010002 79 75 0.9 2.6 0.00 0.15 0.15 97 1016.5
20260901005433 79 70 0.9 2.6 0.00 0.15 0.15 96 1016.6
20260901004903 79 73 0.9 2.6 0.00 0.15 0.15 96 1016.6
20260901004333 79 77 0.9 2.6 0.00 0.15 0.15 97 1016.6
20260901003802 79 75 0.9 2.6 0.00 0.15 0.15 97 1016.7
20260901002732 78 75 0.0 0.9 0.00 0.15 0.15 97 1016.9
20260901002203 78 75 0.0 0.9 0.00 0.15 0.15 96 1016.8
20260901002013 78 75 0.0 1.7 0.00 0.15 0.15 96 1016.7
20260901001708 78 75 0.0 1.7 0.00 0.15 0.15 96 1016.7
20260831235732 78 99 2.6 5.2 0.00 0.15 0.15 96 1016.7
20260831235534 78 99 2.6 5.2 0.00 0.15 0.15 96 1016.7
20260831234434 78 95 2.6 5.2 0.00 0.15 0.15 96 1016.5
20260831233333 78 83 1.7 5.2 0.00 0.15 0.15 96 1016.5
20260831232305 78 88 3.5 7.0 0.00 0.15 0.15 96 1016.4
20260831232125 78 95 2.6 7.0 0.00 0.15 0.15 96 1016.4
20260831231734 78 95 2.6 7.0 0.00 0.15 0.15 96 1016.4
20260831231234 78 105 2.6 6.1 0.00 0.15 0.15 97 1016.4
20260831224602 78 101 1.7 5.2 0.00 0.15 0.15 96 1016.6
20260831224350 78 98 0.9 2.6 0.00 0.15 0.15 96 1016.7
20260831224034 78 98 0.9 2.6 0.00 0.15 0.15 96 1016.7
20260831223532 78 81 0.9 1.7 0.00 0.15 0.15 96 1016.8
20260831223312 78 73 0.9 2.6 0.01 0.15 0.15 96 1016.7
20260831223032 78 73 0.9 2.6 0.01 0.15 0.15 96 1016.7
20260831222504 78 75 1.7 3.5 0.01 0.15 0.15 96 1016.7
20260831221636 78 93 2.6 7.0 0.02 0.15 0.15 96 1016.6
20260831221435 78 93 2.6 7.0 0.02 0.15 0.15 96 1016.6
20260831220904 78 99 3.5 7.0 0.04 0.15 0.15 97 1016.7
20260831220336 78 96 2.6 7.0 0.06 0.15 0.15 97 1016.8
20260831220134 78 88 2.6 7.0 0.06 0.15 0.15 97 1016.8
20260831215833 78 88 2.6 7.0 0.06 0.15 0.15 97 1016.8
20260831215332 78 88 2.6 6.1 0.07 0.15 0.15 97 1016.8
20260831214804 78 84 1.7 5.2 0.08 0.15 0.15 98 1016.8
20260831214435 78 62 0.9 2.6 0.08 0.15 0.15 98 1016.8
20260831214232 78 62 0.9 2.6 0.08 0.15 0.15 98 1016.8
20260831213702 78 67 1.7 3.5 0.08 0.15 0.15 97 1016.9
20260831212704 78 81 2.6 7.0 0.08 0.14 0.14 97 1016.9
20260831211602 78 92 4.3 8.7 0.08 0.13 0.13 98 1016.8
20260831211248 78 93 4.3 9.6 0.08 0.12 0.12 97 1016.8
20260831211032 78 93 4.3 9.6 0.08 0.12 0.12 97 1016.8
20260831210533 78 94 4.3 9.6 0.07 0.10 0.10 97 1016.8
20260831210210 78 89 3.5 9.6 0.08 0.09 0.09 98 1016.9
20260831210002 78 89 3.5 9.6 0.08 0.09 0.09 98 1016.9
20260831205712 78 94 4.3 7.8 0.08 0.08 0.08 97 1017.1
20260831205434 78 94 4.3 7.8 0.08 0.08 0.08 97 1017.1
20260831204332 78 90 4.3 8.7 0.07 0.07 0.07 97 1016.9
20260831203832 78 100 6.1 10.4 0.07 0.07 0.07 98 1016.8
20260831203109 78 102 7.8 11.3 0.07 0.07 0.07 97 1016.7
20260831202805 78 102 7.8 11.3 0.07 0.07 0.07 97 1016.7
20260831202234 78 102 7.8 13.0 0.06 0.06 0.06 97 1016.8
20260831201703 78 100 8.7 13.9 0.05 0.05 0.05 97 1016.8
20260831201202 78 100 10.4 18.2 0.04 0.04 0.04 97 1016.8
20260831195602 79 100 12.2 20.0 0.00 0.00 0.00 94 1016.7
20260831195230 80 98 10.4 16.5 0.00 0.00 0.00 93 1016.5
20260831195106 80 98 10.4 16.5 0.00 0.00 0.00 93 1016.5
20260831194532 81 95 8.7 18.2 0.00 0.00 0.00 92 1016.6
20260831194212 81 96 9.6 18.2 0.00 0.00 0.00 89 1016.7
20260831194033 81 96 9.6 18.2 0.00 0.00 0.00 89 1016.7
20260831193004 84 95 16.5 26.9 0.00 0.00 0.00 85 1017.0
20260831192713 85 90 12.2 26.9 0.00 0.00 0.00 83 1016.6
20260831192504 85 90 12.2 26.9 0.00 0.00 0.00 83 1016.6
20260831192128 90 76 3.5 12.2 0.00 0.00 0.00 72 1016.2
20260831191933 90 76 3.5 12.2 0.00 0.00 0.00 72 1016.2
20260831191718 91 55 2.6 6.1 0.00 0.00 0.00 71 1016.1
20260831191434 91 55 2.6 6.1 0.00 0.00 0.00 71 1016.1
20260831190131 93 32 1.7 3.5 0.00 0.00 0.00 66 1015.9
20260831185833 93 32 1.7 3.5 0.00 0.00 0.00 66 1015.9
20260831184632 92 68 1.7 6.1 0.00 0.00 0.00 70 1016.2
20260831184233 92 68 1.7 6.1 0.00 0.00 0.00 70 1016.2
20260831183844 91 45 1.7 3.5 0.00 0.00 0.00 69 1016.3
20260831183703 91 45 1.7 3.5 0.00 0.00 0.00 69 1016.3
20260831182912 91 36 1.7 2.6 0.00 0.00 0.00 69 1016.3
20260831182703 91 36 1.7 2.6 0.00 0.00 0.00 69 1016.3
20260831180819 93 87 0.9 2.6 0.00 0.00 0.00 68 1016.4
20260831180603 93 87 0.9 2.6 0.00 0.00 0.00 68 1016.4
20260831175602 92 85 0.9 6.1 0.00 0.00 0.00 67 1016.5
20260831175033 92 75 0.9 3.5 0.00 0.00 0.00 72 1016.6
20260831174507 91 81 0.9 1.7 0.00 0.00 0.00 70 1016.6
20260831174004 91 70 0.9 1.7 0.00 0.00 0.00 74 1016.8
20260831173813 91 42 0.9 2.6 0.00 0.00 0.00 71 1017.1
20260831173503 91 42 0.9 2.6 0.00 0.00 0.00 71 1017.1
20260831173415 91 40 1.7 3.5 0.00 0.00 0.00 71 1017.2
20260831173002 91 40 1.7 3.5 0.00 0.00 0.00 71 1017.2
20260831172211 91 38 0.9 2.6 0.00 0.00 0.00 71 1017.2
20260831171934 91 38 0.9 2.6 0.00 0.00 0.00 71 1017.2
20260831170833 91 271 0.9 3.5 0.00 0.00 0.00 71 1017.4
20260831170333 91 113 1.7 3.5 0.00 0.00 0.00 72 1017.4
20260831165834 91 100 1.7 3.5 0.00 0.00 0.00 72 1017.6
20260831164803 91 103 1.7 2.6 0.00 0.00 0.00 73 1017.7
20260831164644 91 100 1.7 3.5 0.00 0.00 0.00 74 1017.8
20260831164233 91 100 1.7 3.5 0.00 0.00 0.00 74 1017.8
20260831163933 90 94 1.7 3.5 0.00 0.00 0.00 77 1017.9
20260831163703 90 94 1.7 3.5 0.00 0.00 0.00 77 1017.9
20260831161846 90 82 0.9 2.6 0.00 0.00 0.00 76 1018.1
20260831161605 90 82 0.9 2.6 0.00 0.00 0.00 76 1018.1
20260831161103 90 94 1.7 3.5 0.00 0.00 0.00 75 1018.1
20260831160032 89 88 1.7 5.2 0.00 0.00 0.00 75 1018.3
20260831155534 89 88 1.7 5.2 0.00 0.00 0.00 77 1018.3
20260831155313 89 87 0.9 2.6 0.00 0.00 0.00 76 1018.4
20260831155033 89 87 0.9 2.6 0.00 0.00 0.00 76 1018.4
20260831154533 89 80 1.7 3.5 0.00 0.00 0.00 77 1018.3
20260831154240 89 73 1.7 3.5 0.00 0.00 0.00 78 1018.4
20260831154004 89 73 1.7 3.5 0.00 0.00 0.00 78 1018.4
20260831153705 88 82 1.7 3.5 0.00 0.00 0.00 80 1018.4
20260831153435 88 82 1.7 3.5 0.00 0.00 0.00 80 1018.4
20260831153214 88 81 1.7 3.5 0.00 0.00 0.00 79 1018.4
20260831152904 88 81 1.7 3.5 0.00 0.00 0.00 79 1018.4
20260831151834 87 65 0.9 3.5 0.00 0.00 0.00 81 1018.5
20260831151639 87 54 0.9 3.5 0.00 0.00 0.00 83 1018.4
20260831151333 87 54 0.9 3.5 0.00 0.00 0.00 83 1018.4
20260831150832 87 49 0.9 2.6 0.00 0.00 0.00 81 1018.4
20260831150634 86 48 0.9 1.7 0.00 0.00 0.00 83 1018.3
20260831150304 86 48 0.9 1.7 0.00 0.00 0.00 83 1018.3
20260831145733 86 32 1.7 2.6 0.00 0.00 0.00 83 1018.3
20260831145628 86 359 1.7 2.6 0.00 0.00 0.00 83 1018.3
20260831145233 86 359 1.7 2.6 0.00 0.00 0.00 83 1018.3
20260831144733 85 35 1.7 3.5 0.00 0.00 0.00 84 1018.2
20260831144233 85 96 1.7 3.5 0.00 0.00 0.00 85 1018.1
20260831143704 84 105 1.7 2.6 0.00 0.00 0.00 86 1018.1
20260831143203 84 95 0.9 2.6 0.00 0.00 0.00 87 1018.1
20260831142204 83 83 0.9 2.6 0.00 0.00 0.00 88 1018.3
20260831140602 82 69 0.9 3.5 0.00 0.00 0.00 91 1018.2
20260831140417 82 73 0.9 3.5 0.00 0.00 0.00 91 1018.2
20260831140104 82 73 0.9 3.5 0.00 0.00 0.00 91 1018.2
20260831135603 82 85 1.7 3.5 0.00 0.00 0.00 92 1018.2
20260831135319 82 96 1.7 5.2 0.00 0.00 0.00 92 1018.2
20260831135033 82 96 1.7 5.2 0.00 0.00 0.00 92 1018.2
20260831134503 82 83 1.7 5.2 0.00 0.00 0.00 93 1018.1
20260831134002 81 55 0.9 2.6 0.00 0.00 0.00 93 1018.2
20260831131047 80 38 0.9 1.7 0.00 0.00 0.00 95 1017.8
20260831130834 80 38 0.9 1.7 0.00 0.00 0.00 95 1017.8
20260831130332 80 27 0.9 1.7 0.00 0.00 0.00 96 1017.9
20260831130053 79 54 0.9 2.6 0.00 0.00 0.00 96 1017.9
20260831125803 79 54 0.9 2.6 0.00 0.00 0.00 96 1017.9
20260831125525 79 70 0.9 2.6 0.00 0.00 0.00 96 1017.8
20260831125234 79 70 0.9 2.6 0.00 0.00 0.00 96 1017.8
20260831124938 79 48 0.9 2.6 0.00 0.00 0.00 97 1017.8
20260831124734 79 48 0.9 2.6 0.00 0.00 0.00 97 1017.8
20260831124331 79 49 0.9 2.6 0.00 0.00 0.00 96 1017.8
20260831124234 79 49 0.9 2.6 0.00 0.00 0.00 96 1017.8
20260831123204 78 41 0.9 3.5 0.00 0.00 0.00 98 1017.6
20260831120741 77 39 0.9 2.6 0.00 0.00 0.00 99 1017.5
20260831120604 77 39 0.9 2.6 0.00 0.00 0.00 99 1017.5
20260831120338 77 27 0.9 2.6 0.00 0.00 0.00 100 1017.4
20260831120104 77 27 0.9 2.6 0.00 0.00 0.00 100 1017.4
20260831113720 77 34 0.9 1.7 0.00 0.00 0.00 100 1017.1
20260831113503 77 34 0.9 1.7 0.00 0.00 0.00 100 1017.1
20260831112204 76 71 0.9 1.7 0.00 0.00 0.00 100 1016.9
20260831111906 76 71 0.9 1.7 0.00 0.00 0.00 100 1016.9
20260831110625 76 0 0.0 0.0 0.00 0.00 0.00 99 1016.6
20260831110333 76 0 0.0 0.0 0.00 0.00 0.00 99 1016.6
20260831110017 76 0 0.0 0.0 0.00 0.00 0.00 99 1016.5
20260831105804 76 0 0.0 0.0 0.00 0.00 0.00 99 1016.5
20260831105234 76 0 0.0 0.0 0.00 0.00 0.00 99 1016.4
20260831104732 76 0 0.0 0.0 0.00 0.00 0.00 99 1016.2
20260831102821 76 0 0.0 0.0 0.00 0.00 0.00 99 1016.2
20260831102603 76 0 0.0 0.0 0.00 0.00 0.00 99 1016.2
20260831101504 76 98 0.0 0.9 0.00 0.00 0.00 99 1016.2
20260831100502 76 98 0.0 0.9 0.00 0.00 0.00 99 1016.2
20260831100247 75 77 0.9 1.7 0.00 0.33 0.00 100 1016.8
20260831094655 76 0 0.0 0.0 0.00 0.00 0.00 99 1016.1
20260831094433 76 0 0.0 0.0 0.00 0.00 0.00 99 1016.1
20260831093654 76 0 0.0 0.0 0.00 0.00 0.00 99 1016.1
20260831093403 76 0 0.0 0.0 0.00 0.00 0.00 99 1016.1
20260831093159 76 0 0.0 0.0 0.00 0.00 0.00 99 1016.2
20260831092904 76 0 0.0 0.0 0.00 0.00 0.00 99 1016.2
20260831092555 76 0 0.0 2.6 0.00 0.00 0.00 99 1016.1
20260831092332 76 0 0.0 2.6 0.00 0.00 0.00 99 1016.1
20260831091832 76 98 0.0 2.6 0.00 0.00 0.00 99 1016.1
20260831091218 76 102 1.7 3.5 0.00 0.00 0.00 99 1016.1
20260831090832 76 102 1.7 3.5 0.00 0.00 0.00 99 1016.1
20260831090636 76 104 0.9 3.5 0.00 0.00 0.00 99 1016.0
20260831090332 76 104 0.9 3.5 0.00 0.00 0.00 99 1016.0
20260831085311 76 107 0.0 0.9 0.00 0.00 0.00 98 1016.1
20260831085056 76 107 0.0 0.9 0.00 0.00 0.00 98 1016.1
20260831084313 76 0 0.0 0.0 0.00 0.00 0.00 98 1016.1
20260831084055 76 0 0.0 0.0 0.00 0.00 0.00 98 1016.1
20260831083754 76 0 0.0 0.0 0.00 0.00 0.00 98 1016.1
20260831083525 76 0 0.0 0.0 0.00 0.00 0.00 98 1016.1
20260831082131 77 100 1.7 2.6 0.00 0.00 0.00 98 1016.0
20260831081925 77 100 1.7 2.6 0.00 0.00 0.00 98 1016.0
20260831081355 77 96 1.7 5.2 0.00 0.00 0.00 98 1016.1
20260831081115 77 93 1.7 5.2 0.00 0.00 0.00 98 1016.0
20260831080855 77 93 1.7 5.2 0.00 0.00 0.00 98 1016.0
20260831080325 77 95 1.7 5.2 0.00 0.00 0.00 98 1016.1
20260831080039 77 95 2.6 5.2 0.00 0.00 0.00 97 1016.1
20260831075825 77 95 2.6 5.2 0.00 0.00 0.00 97 1016.1
20260831075255 77 94 1.7 3.5 0.00 0.00 0.00 97 1016.1
20260831074725 77 93 1.7 3.5 0.00 0.00 0.00 97 1016.2
20260831074401 77 89 1.7 3.5 0.00 0.00 0.00 97 1016.3
20260831074225 77 89 1.7 3.5 0.00 0.00 0.00 97 1016.3
20260831073655 77 96 2.6 3.5 0.00 0.00 0.00 97 1016.4
20260831073325 77 99 2.6 3.5 0.00 0.00 0.00 96 1016.4
20260831073155 77 99 2.6 3.5 0.00 0.00 0.00 96 1016.4
20260831072306 77 96 2.6 5.2 0.00 0.00 0.00 97 1016.4
20260831072126 77 96 2.6 5.2 0.00 0.00 0.00 97 1016.4
20260831071745 78 93 2.6 5.2 0.00 0.00 0.00 96 1016.5
20260831071555 78 93 2.6 5.2 0.00 0.00 0.00 96 1016.5
20260831071319 78 95 3.5 6.1 0.00 0.00 0.00 96 1016.4
20260831071055 78 95 3.5 6.1 0.00 0.00 0.00 96 1016.4
20260831070529 78 94 3.5 6.1 0.00 0.00 0.00 97 1016.4
20260831070025 78 90 2.6 6.1 0.00 0.00 0.00 97 1016.5
20260831065455 78 86 1.7 6.1 0.00 0.00 0.00 97 1016.5
20260831064455 78 83 0.9 2.6 0.00 0.00 0.00 97 1016.5
20260831062855 78 80 0.9 1.7 0.00 0.00 0.00 97 1016.6
20260831062355 78 84 0.9 1.7 0.00 0.00 0.00 97 1016.6
20260831061855 78 92 0.9 2.6 0.00 0.00 0.00 97 1016.6
20260831061355 78 90 0.9 2.6 0.00 0.00 0.00 97 1016.7
20260831060325 78 89 1.7 3.5 0.00 0.00 0.00 97 1016.8
20260831055755 78 94 1.7 3.5 0.00 0.00 0.00 97 1016.9
20260831055225 78 98 2.6 3.5 0.00 0.00 0.00 97 1016.8
20260831054725 78 100 2.6 5.2 0.00 0.00 0.00 97 1016.9
20260831053126 78 100 1.7 3.5 0.00 0.00 0.00 97 1017.2
20260831052555 78 101 1.7 2.6 0.00 0.00 0.00 97 1017.3
20260831052025 78 95 1.7 3.5 0.00 0.00 0.00 97 1017.3
20260831051526 78 92 1.7 5.2 0.00 0.00 0.00 97 1017.3
20260831051025 78 98 2.6 5.2 0.00 0.00 0.00 97 1017.4
20260831045925 78 102 2.6 5.2 0.00 0.00 0.00 96 1017.4
20260831045355 78 99 2.6 5.2 0.00 0.00 0.00 96 1017.4
20260831044855 78 94 2.6 5.2 0.00 0.00 0.00 96 1017.4
20260831044355 78 95 2.6 5.2 0.00 0.00 0.00 96 1017.4
20260831043825 78 96 1.7 5.2 0.00 0.00 0.00 96 1017.4
20260831043325 78 96 1.7 3.5 0.00 0.00 0.00 96 1017.4
20260831042825 78 98 0.9 3.5 0.00 0.00 0.00 96 1017.6
20260831041755 78 91 0.9 1.7 0.00 0.00 0.00 95 1017.5
20260831041255 78 100 0.9 2.6 0.00 0.00 0.00 95 1017.6
20260831040725 78 103 0.9 2.6 0.00 0.00 0.00 95 1017.6
20260831040155 78 83 0.0 0.9 0.00 0.00 0.00 96 1017.6
20260831035655 78 83 0.9 1.7 0.00 0.00 0.00 96 1017.6
20260831034555 77 99 0.9 3.5 0.00 0.00 0.00 96 1017.4
20260831034025 77 98 0.9 5.2 0.00 0.00 0.00 96 1017.6
20260831033455 77 87 0.9 5.2 0.00 0.00 0.00 96 1017.7
20260831031855 77 222 0.0 0.9 0.00 0.00 0.00 96 1017.6
20260831031325 77 222 0.0 0.9 0.00 0.00 0.00 95 1017.7
20260831030825 77 0 0.0 0.0 0.00 0.00 0.00 95 1017.7
20260831030325 77 0 0.0 0.0 0.00 0.00 0.00 95 1017.6
20260831025755 77 222 0.0 0.9 0.00 0.00 0.00 95 1017.5
20260831024754 77 222 0.0 0.9 0.00 0.00 0.00 95 1017.7
20260831024224 77 0 0.0 0.0 0.00 0.00 0.00 95 1017.6
20260831023655 77 0 0.0 0.0 0.00 0.00 0.00 95 1017.7
20260831023637 77 0 0.0 0.0 0.00 0.00 0.00 95 1017.7
20260831023155 77 0 0.0 0.0 0.00 0.00 0.00 95 1017.7